Wind_Speed
53 55 56 55 55 55 54 54 54 54 55 54 53 53 52 52 52 53 54 54 54 54 54 55 56 56 56 56 55 53 50 47 46 45 45 45 45 45 45 45 45 46 46 46 45 45 44 44 43 42 41 39 38 39 41 43 45 46 47 47 46 46 46 47 48 49 51 52 52 51 50 50 49 49 49 49 49 48 47 46 45 44 44 45 46
55 55 56 57 57 58 58 57 57 58 58 59 58 57 55 55 56 57 58 58 59 60 60 59 59 58 56 55 54 53 52 50 49 49 48 48 48 47 48 48 48 49 48 47 45 44 44 43 42 41 38 36 36 38 40 43 45 46 46 46 45 45 45 46 47 48 50 52 52 52 52 51 51 51 51 51 51 51 50 49 48 47 46 46 46
58 58 58 57 57 59 60 60 60 59 60 60 60 60 59 59 59 60 61 62 63 63 62 60 59 59 58 57 56 55 55 54 53 52 51 51 50 50 51 51 51 50 48 47 45 44 44 44 43 42 40 39 38 39 40 42 44 45 45 44 44 45 46 47 47 48 49 51 52 52 51 51 50 51 51 51 51 51 51 51 50 50 49 48 48
58 60 60 60 60 60 62 63 63 63 62 62 62 64 64 64 62 62 62 63 63 63 61 60 59 58 57 57 57 57 57 57 56 55 54 53 53 52 51 50 49 48 47 46 45 45 45 46 46 46 45 45 45 45 44 43 43 43 43 43 43 44 44 45 46 46 47 47 48 49 49 49 48 49 51 51 50 50 51 52 52 52 52 52 51
56 59 61 62 62 63 63 64 65 66 66 66 67 68 68 67 66 65 64 64 64 64 64 64 62 60 58 57 57 57 56 56 55 54 54 53 52 50 49 48 48 48 48 48 48 49 50 50 51 50 50 49 49 49 49 49 47 46 45 45 44 44 44 44 44 43 43 43 44 46 47 47 47 48 50 50 50 50 51 52 53 54 54 54 53
54 57 59 61 63 64 65 66 66 66 66 68 69 69 70 69 69 68 67 67 67 66 66 65 63 61 59 59 59 58 57 57 56 56 55 54 53 52 51 51 51 52 52 53 54 55 56 56 55 54 53 52 51 51 52 52 50 49 49 48 48 46 45 45 44 43 42 42 42 42 43 44 45 46 48 49 49 49 49 50 52 54 55 55 55
56 57 57 58 60 61 63 66 66 65 65 66 68 68 68 69 69 69 69 69 68 67 66 64 62 61 59 59 59 59 58 58 58 59 59 58 57 56 56 56 56 56 56 57 58 59 60 60 58 56 55 54 53 52 52 52 50 50 50 49 49 48 47 46 45 44 43 42 41 40 41 43 44 45 48 49 49 49 49 49 50 51 53 55 56
60 59 59 59 58 59 62 63 63 63 64 66 68 68 68 69 69 69 69 69 68 65 63 62 60 59 58 57 57 57 58 59 59 60 61 61 60 59 59 58 58 58 58 57 58 60 60 60 59 58 56 54 52 50 50 50 49 47 47 48 48 48 47 47 46 45 44 43 41 40 40 42 43 45 47 49 49 50 50 50 50 51 52 54 56
61 61 60 60 61 62 63 64 63 64 66 67 68 69 68 68 67 66 65 65 63 61 60 60 59 59 59 58 58 58 59 60 60 61 63 63 62 61 60 59 59 58 57 56 57 59 59 59 58 57 55 54 53 52 50 48 47 46 46 48 48 48 48 47 47 47 46 45 44 42 41 42 42 43 46 47 49 50 50 51 52 53 53 54 56
61 61 60 60 60 61 62 63 63 64 64 64 65 65 65 65 65 63 63 62 61 61 60 60 60 60 60 61 60 60 61 62 62 63 63 64 64 63 62 61 61 61 59 59 60 60 60 58 57 56 54 53 53 51 49 48 48 47 47 48 48 48 48 49 49 49 48 47 46 45 44 44 44 44 45 47 48 50 50 51 52 52 53 54 56
61 60 60 60 60 60 61 62 62 63 63 63 63 63 63 64 63 63 62 62 62 61 61 61 61 62 62 62 62 62 62 62 63 63 64 64 66 67 65 64 63 62 61 61 61 61 59 58 57 56 54 52 51 51 51 51 51 50 48 47 48 48 48 49 49 49 50 49 48 48 46 46 47 47 47 49 49 50 51 52 52 52 52 53 54
62 62 62 61 61 61 62 62 63 64 64 63 63 63 63 63 63 62 62 62 62 62 63 62 62 62 62 63 63 63 63 62 63 63 63 64 66 68 67 65 64 63 62 62 61 60 59 58 58 57 56 56 56 56 55 53 52 51 50 49 49 49 49 50 50 49 50 51 50 50 49 49 50 49 50 52 52 51 53 54 54 54 54 54 55
64 64 64 63 64 64 64 65 65 66 66 65 64 64 64 64 63 62 62 62 61 62 63 63 62 62 62 62 63 63 63 63 63 64 65 65 65 66 66 64 62 61 61 61 61 59 58 59 59 59 59 60 60 59 57 55 53 52 52 51 51 51 51 51 51 50 50 50 51 51 51 52 52 51 51 54 54 54 55 56 57 58 58 58 59
65 64 64 64 64 64 65 66 67 68 68 68 68 67 67 66 65 64 63 62 61 61 62 63 63 62 62 63 64 65 64 65 66 66 66 65 64 64 63 61 60 59 57 57 58 57 57 58 60 60 61 62 62 61 60 58 56 54 54 54 53 53 53 52 51 49 48 47 48 48 50 51 52 51 52 54 55 56 58 59 60 61 61 61 62
65 65 65 65 65 65 66 67 68 69 69 69 70 70 69 69 69 68 67 67 66 66 66 66 66 66 66 66 65 64 65 66 67 67 65 64 64 63 63 63 63 62 60 60 60 59 58 59 60 61 63 64 65 64 62 61 60 58 57 57 57 57 56 56 54 53 52 50 49 48 49 50 50 50 51 52 53 55 56 58 61 63 63 63 64
67 67 67 67 67 68 69 70 71 72 73 73 73 73 73 73 73 73 73 72 72 72 70 68 68 69 67 66 65 65 65 65 66 67 66 65 65 64 65 66 67 66 66 66 65 64 63 63 63 63 64 66 67 68 66 64 63 61 60 60 60 59 59 59 58 58 58 58 58 57 56 56 55 53 52 52 52 53 54 56 59 62 63 63 64
71 70 70 71 72 72 73 74 75 76 76 77 77 76 77 77 77 77 76 76 75 75 73 69 67 65 64 66 67 67 65 65 66 66 65 65 65 65 66 68 68 68 69 69 67 67 67 67 67 67 67 68 69 70 70 68 66 65 64 64 63 63 63 62 62 62 62 63 64 64 64 63 62 60 58 57 56 55 55 56 58 60 61 62 63
74 73 74 75 75 75 76 76 76 77 77 77 77 77 77 77 76 76 75 75 75 74 72 68 63 62 65 68 67 62 61 64 67 66 65 65 65 65 66 66 66 67 70 71 70 70 70 70 71 71 72 72 72 71 70 69 69 68 68 67 66 66 66 66 65 65 66 66 66 67 66 66 64 63 61 59 57 56 55 56 57 58 59 60 61
76 75 75 75 75 75 75 74 74 73 74 73 73 73 72 72 71 70 69 70 69 69 68 64 60 59 63 64 61 58 58 61 64 64 65 65 65 67 68 68 68 69 72 73 73 73 74 75 76 76 76 76 74 72 70 68 67 68 69 69 69 68 68 68 67 66 67 67 66 66 65 64 63 61 60 59 58 57 56 56 57 57 57 58 59
76 74 73 73 73 72 71 71 70 70 70 70 69 68 68 68 67 66 65 64 64 65 64 62 60 60 60 59 57 56 56 59 62 65 66 68 69 70 72 71 71 74 75 75 75 75 76 78 80 80 79 76 74 72 70 68 68 69 71 71 70 70 70 70 69 68 67 66 66 65 64 63 61 60 60 59 60 59 59 59 59 58 57 58 59
74 73 72 71 71 70 70 69 69 69 69 69 68 67 67 67 66 66 65 64 63 63 63 62 60 59 58 57 56 56 56 58 61 64 67 70 72 73 74 74 75 77 78 77 77 78 79 81 84 84 81 75 70 68 67 68 70 71 72 72 71 71 70 70 70 69 68 67 66 65 64 63 62 62 61 61 61 61 61 62 61 61 60 60 60
73 73 73 73 73 72 72 71 70 70 70 69 69 69 69 68 68 68 68 66 65 65 65 64 62 61 60 58 57 56 56 58 60 63 66 70 72 73 75 75 76 77 77 75 75 76 79 81 82 82 78 71 66 65 66 68 70 71 71 71 70 70 70 69 69 69 68 67 66 66 65 65 64 64 64 63 63 63 63 64 64 64 64 64 63
74 75 75 75 76 75 75 74 73 72 71 71 71 71 72 72 71 71 71 70 69 67 67 66 65 64 63 62 60 59 58 60 62 63 65 69 72 73 75 75 76 78 78 74 72 72 74 76 77 77 75 70 65 63 65 67 68 67 68 68 68 69 69 69 69 69 69 68 68 68 68 68 68 68 67 67 66 66 66 65 65 65 65 66 65
76 76 77 77 78 78 77 77 76 75 75 75 75 74 74 74 74 74 74 74 73 71 70 69 69 68 67 67 65 63 62 63 65 64 64 68 72 73 75 77 78 81 80 77 73 71 71 72 72 72 71 70 68 66 65 65 65 66 67 67 67 68 69 70 70 71 70 70 70 71 72 72 72 71 71 70 69 68 67 66 66 66 66 66 66
79 80 80 80 81 81 81 80 80 79 79 79 78 78 78 77 77 77 77 77 76 75 73 73 73 73 72 71 70 69 67 67 68 67 67 70 71 72 74 76 78 81 82 80 77 75 73 72 71 70 68 69 69 69 67 66 66 67 68 68 68 69 71 72 73 73 73 73 74 74 75 75 75 74 74 73 72 71 69 67 67 67 67 66 66
82 83 83 83 83 83 83 83 83 83 83 82 82 81 81 81 80 80 79 79 79 78 77 77 77 77 77 76 75 75 73 72 71 71 71 73 73 73 74 76 78 80 81 81 80 78 76 75 75 73 70 70 70 70 69 69 69 70 70 70 71 72 73 75 76 76 77 77 78 78 78 78 78 77 76 76 75 73 71 69 69 68 68 67 67
85 85 85 85 85 85 85 85 85 85 85 85 84 84 83 83 82 82 82 82 82 81 81 80 80 81 81 80 80 80 79 77 76 75 75 76 77 77 77 78 79 80 81 81 81 80 79 79 78 76 74 73 73 73 72 72 72 72 73 73 73 74 75 77 78 78 80 81 81 81 81 81 81 80 79 78 77 75 73 72 71 71 72 72 71
86 87 87 87 87 87 87 87 87 86 86 86 86 86 85 85 84 84 85 85 85 85 84 83 83 85 84 83 83 84 84 82 81 80 79 80 81 81 81 81 82 82 83 83 83 83 83 83 82 80 78 77 77 76 75 75 75 75 75 75 75 76 77 79 79 80 81 82 83 83 83 83 83 82 81 80 79 77 75 73 73 74 74 74 71
88 88 89 89 89 88 88 87 87 87 87 87 87 86 86 86 86 85 86 86 86 87 86 86 87 88 86 85 85 87 88 87 86 85 85 85 85 85 85 84 84 84 84 85 85 86 87 87 86 83 82 81 80 79 78 78 78 77 77 76 77 77 79 80 81 82 82 83 83 84 84 83 83 82 81 80 78 76 74 73 74 74 72 70 67
87 88 88 89 89 88 87 87 87 86 86 86 86 86 86 86 86 86 86 85 85 87 88 88 88 89 88 87 87 88 90 91 90 89 89 90 89 87 87 86 85 85 86 86 87 88 89 89 88 86 85 84 83 82 80 79 78 77 77 78 78 78 79 80 81 81 82 83 83 83 83 83 82 82 80 79 76 75 73 73 72 70 67 65 63
86 86 87 87 87 86 86 85 85 84 84 84 84 84 85 85 85 85 85 84 84 85 87 88 89 88 87 87 88 90 92 93 93 93 93 92 91 89 89 88 87 88 88 89 88 89 89 90 89 89 89 88 87 85 82 79 77 77 78 79 79 79 79 80 80 80 81 82 82 82 82 82 81 80 78 76 74 73 72 70 68 64 62 60 58
83 84 85 85 85 84 84 83 82 81 81 81 82 82 83 83 83 83 84 84 84 84 85 87 88 87 86 87 89 91 92 94 95 97 97 94 91 90 89 89 89 90 90 90 90 90 90 90 90 91 92 90 88 85 82 79 79 79 80 80 79 79 80 80 80 81 81 81 81 81 80 79 78 76 74 71 70 68 67 64 61 58 56 54 52
81 82 82 82 81 80 80 79 78 77 76 75 76 77 78 78 79 80 80 82 83 83 83 85 86 86 86 88 90 91 93 94 96 99 99 94 91 90 90 91 91 91 91 91 91 91 90 91 92 93 93 90 86 83 81 80 80 80 81 80 79 79 80 81 81 81 81 81 80 78 77 75 73 71 68 65 63 62 60 57 54 51 50 49 47
77 77 77 76 75 75 75 74 72 71 69 68 68 70 71 71 72 72 74 76 78 80 80 82 84 85 87 88 90 92 94 95 97 99 98 93 91 92 92 92 92 92 92 92 92 91 91 92 93 93 91 88 85 83 82 81 81 81 82 81 80 80 81 82 81 81 80 79 77 75 73 70 68 65 61 58 57 56 53 50 47 47 46 45 43
73 72 72 71 71 71 70 69 68 66 65 63 63 64 65 65 65 65 66 68 70 73 75 77 79 82 84 87 89 91 94 95 96 97 96 95 93 93 93 92 92 93 93 93 92 92 92 93 93 92 90 88 86 84 83 82 81 82 82 82 81 81 81 80 80 79 77 75 72 70 67 64 61 57 54 52 51 50 47 44 44 44 43 42 41
69 69 69 68 68 67 66 65 64 63 61 60 60 60 61 61 60 60 61 62 64 67 69 70 72 76 80 82 85 87 89 92 93 94 95 95 94 93 92 91 91 93 93 93 92 92 92 92 91 90 89 87 86 84 83 81 81 81 81 81 81 80 79 78 77 75 72 69 67 64 60 57 54 51 48 47 47 46 43 42 42 41 40 39 39
66 66 66 66 65 64 63 62 61 60 59 58 58 57 58 58 58 57 58 59 61 63 65 65 67 69 72 74 77 80 82 84 87 90 91 91 91 91 89 89 90 92 92 92 92 92 91 90 88 87 86 86 85 83 81 80 79 79 79 78 78 77 75 73 71 69 65 63 60 57 53 51 48 46 45 45 45 43 41 40 40 39 38 38 36
63 63 63 63 62 61 60 59 58 58 57 56 56 56 56 56 56 56 56 57 58 60 61 62 63 64 66 68 71 73 74 75 78 80 82 84 85 85 85 86 87 88 88 88 88 88 86 84 84 83 83 82 81 79 78 77 76 76 74 73 72 70 68 66 64 61 59 56 53 51 48 46 44 43 43 43 42 40 39 39 38 37 36 35 34
59 59 59 59 58 58 57 56 55 55 54 54 54 54 55 55 54 54 54 55 56 57 58 60 60 60 62 65 67 67 68 69 70 72 74 76 77 78 80 81 81 80 79 79 78 77 76 76 77 77 75 74 73 72 72 71 69 68 66 65 63 62 60 59 57 55 53 51 48 46 44 43 42 42 41 41 40 38 37 37 36 35 34 33 32
55 56 55 55 55 54 53 52 52 51 51 52 52 52 53 53 52 51 51 52 53 54 55 56 57 57 59 62 63 63 64 65 65 67 69 70 71 73 75 75 74 73 71 69 67 65 64 65 66 65 63 63 64 65 64 62 60 59 59 58 56 56 55 53 52 51 49 46 45 43 42 41 40 40 39 38 38 36 35 35 34 33 32 31 31
51 52 51 51 51 50 49 49 49 49 48 49 49 50 51 50 49 49 49 50 51 52 53 53 54 56 57 58 59 61 62 62 63 64 65 66 68 69 70 69 69 68 66 62 58 57 56 57 57 56 56 58 59 58 56 55 55 55 55 54 52 52 51 49 48 47 45 43 42 41 39 39 39 38 37 36 35 34 34 33 32 32 31 30 29
48 48 47 47 47 46 46 46 47 46 45 46 46 47 48 47 46 46 47 47 48 48 50 51 52 53 54 55 57 58 59 60 61 61 62 63 65 65 65 66 66 64 60 55 51 50 50 52 53 54 55 56 55 52 51 52 53 53 51 50 49 48 47 46 45 44 42 41 40 38 37 37 37 36 35 34 34 33 32 32 31 30 30 29 28
45 45 44 44 43 43 43 44 44 43 42 42 42 43 44 44 43 43 43 44 44 45 46 47 48 49 51 53 54 55 56 57 57 57 58 60 62 62 62 62 61 58 53 48 45 46 48 51 52 54 55 54 51 49 50 50 50 49 48 47 45 44 44 43 42 41 40 39 37 36 36 35 35 34 33 33 32 32 31 30 29 29 28 28 27
42 42 42 41 40 39 39 40 41 40 39 38 39 40 41 41 41 40 40 40 40 41 42 43 44 46 49 50 51 51 52 52 52 52 54 56 58 58 57 56 55 52 47 43 42 45 48 50 51 53 53 51 49 48 48 48 47 47 46 44 43 42 42 41 40 39 38 37 36 35 34 34 34 33 32 31 31 30 30 29 28 28 28 27 26
40 40 39 38 37 36 37 38 39 38 37 36 36 37 38 39 39 38 38 37 37 38 39 40 42 44 45 46 46 47 47 48 48 48 49 51 52 52 51 50 48 46 43 40 41 44 47 49 51 53 52 49 47 46 47 47 47 46 44 42 41 40 40 39 38 37 36 35 34 33 33 33 33 32 31 30 30 29 29 28 27 27 27 26 25
38 37 37 37 36 35 34 35 37 37 35 35 34 35 36 37 36 36 36 35 35 35 36 37 39 41 41 41 42 43 44 44 44 45 45 46 46 45 44 43 42 41 40 39 40 44 48 52 53 52 49 46 46 46 46 46 46 44 42 40 39 39 38 37 36 35 35 34 33 33 32 32 32 31 30 29 29 28 28 27 27 27 26 25 24
36 36 35 35 35 34 33 33 34 34 34 33 32 32 33 33 33 33 33 33 33 33 34 35 36 37 38 39 40 41 41 41 41 41 41 41 40 39 38 38 38 39 39 40 43 47 51 52 50 47 46 45 45 46 46 45 44 42 40 39 38 38 37 36 35 34 34 33 33 32 32 32 31 31 30 29 28 27 27 27 26 26 26 25 24
34 34 34 33 33 32 31 30 31 31 31 31 30 30 30 30 30 30 30 30 31 31 32 33 33 34 35 36 36 37 37 37 38 38 37 37 37 36 37 38 39 41 42 44 46 48 49 47 45 44 44 44 44 44 44 43 42 40 39 38 37 37 36 35 34 34 34 33 33 32 32 31 31 30 29 28 27 27 27 27 26 26 25 25 24
33 33 32 31 31 30 29 28 28 28 28 28 28 28 28 27 27 27 27 28 28 29 30 30 31 32 32 33 33 34 34 35 35 35 35 36 36 37 38 39 41 41 42 42 42 43 43 43 43 43 43 43 43 43 42 41 40 39 38 37 36 36 35 34 34 34 34 33 32 32 32 31 31 30 29 28 27 26 26 26 26 26 25 25 25
31 31 30 29 28 28 27 26 25 25 25 25 24 24 25 25 25 25 25 25 26 26 27 28 29 29 30 30 31 31 32 32 32 33 34 35 35 36 36 37 37 37 37 37 38 39 40 41 42 42 42 43 42 41 40 39 38 37 36 36 36 35 35 34 34 34 34 33 32 32 31 31 30 30 29 28 27 26 26 26 26 26 26 25 25
29 29 28 27 25 25 25 24 23 23 22 22 22 21 22 22 22 23 23 23 23 23 24 25 26 27 27 28 29 29 29 30 30 31 32 32 32 32 33 33 34 35 35 36 37 38 40 40 41 41 41 41 40 39 38 37 37 36 35 35 36 35 35 34 34 34 34 33 33 32 31 31 30 29 28 28 27 27 26 26 27 27 26 26 26
Wind_Direction
248 250 252 254 255 254 254 255 256 257 259 261 262 262 262 262 263 263 264 265 265 267 269 271 274 277 280 281 281 280 278 275 275 275 275 276 276 276 277 278 280 281 282 282 281 280 278 279 279 278 278 277 274 273 272 272 272 271 272 271 270 269 269 267 266 265 263 263 263 263 263 263 263 262 260 257 255 253 253 253 254 256 256 255 253
246 249 252 255 257 258 257 257 256 256 257 259 260 260 261 262 263 262 262 263 265 267 270 273 276 278 279 279 279 278 277 276 276 276 275 275 275 276 277 279 281 282 283 283 282 279 278 279 280 281 280 277 273 272 271 271 271 271 271 270 269 268 267 267 266 265 264 263 263 263 263 263 263 262 260 258 255 253 252 253 253 254 255 256 256
245 247 250 253 256 259 261 261 260 259 258 258 257 257 259 262 263 262 262 262 264 267 270 273 277 279 279 279 278 276 275 275 277 277 276 276 276 278 280 282 284 285 285 285 284 282 282 284 287 289 288 284 280 278 275 272 270 269 268 267 267 267 267 267 266 266 265 265 264 264 264 264 263 261 259 257 255 253 252 252 253 254 254 255 256
247 248 249 250 253 256 259 261 262 262 261 260 260 260 262 264 265 264 264 264 265 267 269 273 277 278 279 280 281 280 278 279 280 280 280 280 282 283 285 285 286 287 286 286 285 284 284 286 289 291 291 288 286 285 283 280 276 274 272 270 269 269 270 270 269 268 266 266 265 264 263 262 261 260 258 256 255 253 252 252 252 253 253 253 254
248 249 250 251 252 254 256 258 261 263 264 263 263 264 265 266 266 266 267 267 268 269 271 273 275 275 274 275 277 278 278 278 279 279 280 281 282 283 284 284 284 284 283 283 282 282 282 284 287 289 289 287 286 285 284 283 282 281 280 279 278 277 276 275 274 271 269 268 267 264 262 261 260 259 258 257 255 254 253 251 251 251 252 252 252
250 250 251 252 253 255 256 256 258 260 262 263 263 264 265 266 267 268 268 269 270 271 272 273 273 273 272 272 272 272 273 272 273 273 274 275 276 276 276 277 278 277 278 278 278 278 279 281 283 285 285 284 283 282 281 281 281 282 282 282 281 281 280 278 277 274 272 272 270 265 262 261 261 261 260 258 256 255 254 253 252 251 252 252 252
253 253 253 253 254 255 256 256 256 258 260 260 262 263 264 265 266 268 269 270 271 272 273 272 272 271 271 271 271 271 271 272 272 272 272 272 273 274 274 275 275 274 274 275 276 276 277 278 280 282 283 282 281 280 280 279 279 280 280 280 280 280 280 279 277 276 274 273 270 267 264 262 261 261 260 259 257 255 254 253 253 252 253 253 252
254 255 254 254 254 254 255 256 256 257 258 259 261 263 264 264 266 267 268 269 271 272 272 272 271 271 271 270 270 270 271 271 272 272 273 274 274 275 276 276 276 276 276 276 275 275 275 276 278 279 279 279 279 279 280 280 279 279 279 279 279 279 279 278 277 276 275 272 269 268 267 266 264 262 261 260 258 257 256 255 254 254 254 254 254
254 255 255 255 255 255 256 257 257 257 259 260 261 263 263 264 265 266 267 268 269 269 270 270 270 270 270 270 270 270 271 272 272 273 274 275 275 275 275 275 275 276 276 275 274 274 275 276 276 276 276 277 278 279 280 280 279 279 278 278 278 278 277 276 276 275 274 272 269 267 268 268 267 265 264 263 261 259 258 257 257 257 256 255 255
255 255 256 256 256 256 257 258 258 259 260 261 262 263 264 264 264 265 265 266 266 267 268 269 269 270 270 271 271 271 272 272 273 273 274 275 275 274 274 275 275 275 275 274 273 274 275 276 276 277 278 278 278 279 279 279 279 278 276 276 275 275 276 276 276 276 274 272 270 268 267 267 266 265 265 265 264 263 260 258 258 258 258 257 257
258 257 257 257 257 257 258 258 259 259 260 260 262 263 263 264 264 264 264 265 266 266 267 268 269 270 271 271 272 272 272 272 272 273 273 274 275 275 276 276 276 277 276 276 276 276 277 277 276 277 278 277 276 277 278 278 278 277 275 273 272 272 272 273 274 275 274 273 272 270 269 268 267 265 265 264 263 263 262 260 257 256 255 256 257
260 259 258 258 258 258 259 259 259 259 260 260 261 262 262 263 264 264 265 266 266 267 267 268 269 270 271 272 273 272 272 272 272 273 274 276 277 278 279 279 278 277 277 277 277 278 278 277 277 277 277 276 276 277 278 277 277 276 276 275 273 272 270 270 270 272 273 273 272 271 270 269 268 267 267 266 265 264 263 262 260 257 255 255 256
261 261 260 260 259 259 259 260 259 259 259 259 259 260 261 262 263 264 265 266 267 268 268 269 269 270 271 272 272 272 272 273 274 275 276 278 278 279 280 280 279 278 277 277 278 278 277 277 278 278 278 278 279 280 280 280 279 279 278 277 276 275 274 272 270 269 268 269 270 270 270 269 269 268 268 268 267 266 265 264 263 261 260 259 259
263 263 262 262 261 261 261 261 261 261 260 259 259 260 260 261 262 263 264 265 266 267 268 269 270 270 271 271 271 272 272 273 274 276 277 278 277 277 277 276 276 275 275 275 275 275 275 276 277 277 277 278 279 280 282 283 283 283 282 282 281 281 281 281 280 278 273 268 267 268 268 269 269 268 268 269 269 268 267 267 266 264 263 262 261
265 265 265 264 264 264 263 263 263 263 262 262 261 261 261 261 261 262 262 263 264 265 267 269 269 270 271 272 272 272 273 274 275 275 275 274 273 273 273 272 271 270 270 270 271 270 270 270 272 273 275 276 278 281 283 284 285 286 286 286 286 286 287 288 288 287 285 281 278 275 273 272 272 270 269 268 268 268 268 268 267 266 265 264 264
267 266 266 266 265 265 265 265 265 265 264 264 264 263 263 263 263 262 262 263 263 264 266 268 270 272 273 271 270 272 274 275 275 274 273 271 269 268 267 267 267 268 269 269 270 270 269 268 267 268 270 273 277 280 283 284 285 285 285 284 284 285 286 286 287 287 287 287 287 286 284 283 282 280 278 275 273 272 271 270 268 267 265 265 265
266 266 266 266 266 266 266 266 266 266 266 266 266 265 265 265 265 265 265 264 264 264 264 265 267 269 269 267 269 272 273 273 272 271 270 269 267 265 264 264 265 266 267 268 269 268 268 267 266 265 267 270 273 277 280 283 283 283 283 283 284 284 284 285 285 285 285 285 285 285 285 286 286 286 285 283 281 278 276 274 271 268 267 266 266
267 267 267 267 267 267 267 267 267 267 267 267 267 267 267 266 266 267 267 267 267 266 265 264 263 262 262 264 267 268 268 267 268 267 265 264 264 264 263 262 262 262 263 264 265 265 265 265 264 265 266 268 271 274 277 279 280 281 282 282 282 283 282 282 283 282 282 282 282 283 283 284 284 284 284 284 282 280 278 276 274 271 269 268 267
268 268 267 267 267 267 267 268 268 268 268 268 268 268 268 268 268 268 268 268 269 268 267 265 263 261 261 264 264 264 264 264 264 263 262 262 262 262 261 261 261 260 260 261 262 263 264 264 264 265 267 269 272 275 276 277 278 279 280 281 281 282 282 283 283 282 282 282 282 282 282 283 283 283 283 283 283 282 280 279 277 275 273 271 270
268 268 267 267 267 268 268 268 268 268 268 268 268 268 269 269 268 268 268 268 269 269 268 267 265 264 266 266 264 263 263 263 263 263 263 263 262 263 263 262 262 261 260 260 260 262 264 265 266 267 269 271 273 275 275 276 277 278 279 280 281 282 282 283 283 283 283 283 283 283 283 283 283 283 283 283 283 282 282 280 279 277 275 274 273
267 268 268 268 268 268 268 267 267 267 268 268 268 269 269 269 270 270 269 269 269 268 268 267 266 266 266 266 266 265 264 264 265 266 265 264 264 264 264 264 263 262 261 261 261 261 263 265 268 270 273 274 276 277 277 276 276 277 278 279 280 281 281 282 282 283 283 283 283 283 284 284 284 283 283 282 282 282 283 283 282 281 279 277 276
268 269 269 269 269 269 268 268 267 267 268 269 269 270 270 270 270 270 270 269 269 268 267 267 266 265 265 264 264 265 265 265 265 265 265 266 266 266 266 266 265 265 264 263 263 263 264 265 268 272 276 279 279 278 277 275 275 275 277 278 279 279 280 280 280 281 282 283 283 284 284 284 284 283 283 284 284 284 284 284 284 284 283 282 280
268 269 269 270 270 270 270 269 269 269 269 269 270 270 271 271 271 270 270 269 268 268 267 267 266 265 264 264 263 262 263 264 264 263 264 265 266 267 268 269 269 269 268 268 267 267 267 268 270 273 278 280 280 278 276 275 275 276 277 277 278 278 279 280 280 280 281 282 284 284 285 285 285 285 286 286 286 286 286 285 284 283 283 282 282
264 265 265 266 267 267 268 268 268 268 268 268 268 268 268 269 270 270 270 270 270 269 268 268 267 266 265 265 264 263 262 262 263 263 262 263 264 265 267 269 270 270 271 272 272 271 270 270 271 273 276 278 278 278 277 276 277 277 278 278 278 279 279 279 280 281 282 283 284 285 285 286 286 287 288 288 288 287 286 285 285 284 283 283 283
262 262 262 262 262 263 264 264 264 264 264 265 265 265 265 265 266 266 267 268 269 269 268 268 268 268 267 266 266 265 263 262 263 263 262 262 262 264 265 266 267 269 271 272 273 273 273 273 273 274 274 275 275 276 277 277 277 278 278 278 279 279 280 280 281 283 284 285 285 286 286 287 287 288 289 289 289 288 287 287 286 286 286 286 286
263 263 262 262 263 263 263 263 263 263 263 263 263 263 263 263 263 263 264 264 265 265 266 266 266 267 267 267 266 265 264 263 262 262 262 262 262 263 263 264 265 267 268 270 272 273 274 274 274 275 274 274 275 275 276 276 277 277 278 278 279 279 280 282 283 284 285 286 286 287 287 288 289 289 289 290 290 289 289 289 289 289 289 289 289
266 266 266 265 265 265 264 264 264 263 263 263 262 262 261 262 262 262 262 262 262 262 262 262 263 264 264 265 265 265 264 263 262 262 262 262 262 262 262 263 264 265 267 269 271 272 272 273 273 274 274 274 274 274 275 275 276 276 277 278 279 280 281 282 284 285 285 286 287 287 288 289 289 290 290 290 290 290 291 291 291 292 292 292 291
268 268 268 267 267 267 266 266 265 265 264 264 263 263 262 261 261 261 261 261 261 260 260 260 260 260 261 262 263 264 264 264 263 262 261 261 261 262 262 262 263 264 266 268 269 270 270 271 271 271 272 272 273 273 274 275 275 276 277 278 279 280 281 282 283 284 284 285 286 287 287 288 288 289 289 290 290 290 291 291 292 292 292 291 290
269 269 269 269 268 268 268 267 267 266 266 265 264 264 263 262 261 260 259 259 260 260 260 259 258 259 259 259 260 261 262 262 262 262 262 261 260 261 261 262 263 264 266 267 268 269 269 270 270 271 272 272 272 273 273 274 275 276 277 279 279 280 281 282 282 283 284 285 285 286 286 287 288 288 288 289 289 290 291 292 292 291 290 289 289
270 270 269 269 269 269 268 268 267 267 266 266 265 264 264 263 262 261 259 258 258 258 258 258 257 257 258 258 259 259 260 261 261 260 260 261 261 261 262 263 263 264 265 265 266 268 269 271 272 273 273 273 274 274 274 274 276 278 279 279 280 280 280 281 282 283 284 284 285 285 286 286 287 287 288 289 290 291 292 292 291 289 288 288 288
270 270 270 270 269 269 268 267 267 266 266 265 264 264 263 262 261 260 259 258 256 256 256 256 256 256 256 257 257 257 258 259 259 259 259 259 260 261 262 262 263 263 264 265 266 267 269 270 272 273 274 274 274 275 276 277 279 279 280 280 280 281 281 282 282 283 283 284 284 285 285 286 286 287 288 290 291 292 291 290 288 288 288 288 287
271 271 271 270 270 269 268 268 267 266 265 264 264 263 262 261 260 259 258 258 256 254 254 254 254 254 254 254 255 255 256 257 258 259 259 259 259 260 261 262 262 263 264 264 265 266 267 269 270 271 272 272 273 275 277 278 279 279 279 280 281 282 282 283 283 284 284 284 284 284 285 286 287 288 290 291 292 291 289 287 287 288 287 286 285
272 271 271 270 270 270 269 268 267 266 265 264 264 263 262 261 260 259 258 258 257 255 253 253 253 252 252 252 252 253 254 254 256 257 259 259 259 259 259 260 260 261 262 263 264 265 266 267 268 268 270 271 273 275 277 278 278 279 279 280 281 282 282 283 284 284 284 284 285 285 286 288 289 290 291 291 291 288 286 286 287 287 286 285 286
272 271 271 271 270 270 270 269 268 268 266 265 264 264 263 262 261 259 258 257 257 256 254 253 252 251 250 250 250 251 252 253 254 256 258 258 258 257 257 258 259 260 260 261 262 263 264 265 266 268 270 272 274 275 276 277 278 278 279 280 281 281 282 283 283 284 284 284 285 287 288 289 290 290 291 290 287 285 285 287 287 286 286 287 287
272 271 271 271 271 271 271 270 270 269 268 266 265 264 263 262 261 259 258 256 256 255 254 253 252 251 251 250 249 250 251 252 253 254 256 257 257 256 256 257 258 259 260 260 261 262 263 264 266 268 270 272 273 274 275 276 277 277 278 279 280 281 281 282 283 283 283 285 286 287 288 289 289 289 288 287 285 285 286 288 287 286 287 288 288
273 273 272 272 272 272 272 271 271 270 269 268 266 265 264 263 261 259 257 256 255 254 253 252 251 251 250 250 250 250 250 251 252 253 255 256 257 257 257 257 257 258 259 260 260 261 262 263 265 267 269 271 272 273 274 274 275 276 277 278 279 279 280 281 281 282 283 284 285 286 287 287 287 287 286 286 285 287 288 288 287 286 287 287 288
273 273 273 273 273 273 272 272 272 271 270 269 268 266 265 263 261 259 257 256 255 254 253 252 251 250 250 250 251 250 250 251 252 253 254 255 257 258 258 257 257 257 258 258 259 260 261 263 265 266 268 269 270 272 273 274 275 275 276 276 277 278 278 279 280 281 282 283 283 284 285 285 285 286 286 286 286 287 287 287 286 286 287 287 288
272 272 272 272 273 273 272 272 272 271 270 269 268 267 266 264 262 260 259 257 256 255 254 253 251 251 250 250 250 250 250 250 250 252 253 255 256 256 257 257 256 256 257 257 258 260 261 263 265 266 267 268 270 271 273 273 273 273 274 274 274 275 276 276 278 279 279 280 281 283 284 284 285 286 285 285 286 286 285 285 285 286 287 288 289
272 272 272 272 272 272 272 272 271 271 270 269 268 267 266 264 263 261 260 259 258 257 255 254 253 251 250 251 251 251 250 250 249 250 251 252 253 254 255 255 256 257 257 258 259 261 262 263 264 265 266 268 270 270 270 270 270 270 271 271 271 272 273 274 275 276 278 279 281 282 283 284 284 284 283 284 284 284 283 284 284 285 286 288 289
271 271 272 272 272 272 272 272 271 271 270 269 268 267 266 265 264 263 262 260 259 258 256 255 254 252 250 250 250 250 250 250 250 249 250 250 251 253 254 256 257 258 259 260 261 261 262 263 264 265 266 267 266 266 266 266 267 268 268 268 269 270 271 273 274 275 277 279 280 281 282 282 282 281 282 281 281 281 282 282 283 285 286 287 288
271 271 272 272 273 273 273 273 272 271 270 269 269 268 267 266 265 264 262 261 259 258 257 256 255 253 251 250 249 249 249 249 248 248 248 249 250 251 253 256 257 259 260 260 261 261 262 263 264 265 264 263 262 263 264 265 265 266 266 267 268 269 270 272 273 274 276 278 279 279 280 280 279 279 279 279 279 280 280 281 283 284 285 287 288
271 272 272 273 273 274 274 273 273 272 270 269 268 267 267 266 265 263 261 260 258 257 256 255 255 254 252 251 250 249 248 248 248 247 248 248 249 250 251 253 256 258 260 261 262 262 263 263 262 261 261 260 261 262 263 263 264 265 266 267 267 268 269 270 272 273 275 276 277 277 277 277 277 277 277 277 277 278 279 280 282 283 285 286 287
273 273 273 274 274 274 274 274 273 272 270 269 268 267 267 266 264 262 260 259 258 256 255 255 254 254 253 252 251 250 249 249 248 248 247 248 249 249 250 252 255 258 260 261 261 260 259 258 258 258 259 259 259 260 260 261 263 264 265 265 266 267 268 269 270 272 273 274 275 275 275 275 274 274 274 275 275 276 278 279 281 282 284 285 286
275 275 275 275 275 275 275 275 274 273 272 270 269 268 267 266 265 263 261 259 257 255 254 254 253 252 251 251 251 251 250 250 249 248 248 248 249 250 251 253 255 258 259 259 257 255 255 255 255 255 256 257 257 258 259 260 261 262 263 264 265 266 266 268 269 270 271 272 273 273 273 272 272 272 272 273 273 275 276 278 279 281 282 282 283
276 277 277 277 277 276 276 276 275 274 273 271 269 268 266 266 265 264 262 260 257 255 254 252 252 252 252 252 252 252 252 251 251 250 249 249 250 251 252 253 254 255 256 254 251 251 251 251 251 252 253 255 256 257 258 258 259 260 262 263 264 264 265 266 268 268 269 270 270 270 270 269 269 269 270 271 272 273 275 276 278 278 279 279 279
278 278 279 279 278 277 276 276 275 275 274 272 270 267 266 265 264 264 262 260 258 255 253 252 251 252 252 252 251 251 251 251 250 250 249 249 250 251 251 252 252 251 250 247 245 245 246 247 248 250 252 253 253 254 255 256 258 259 260 261 262 263 264 265 265 266 267 268 268 268 267 267 267 267 268 269 270 271 273 274 275 275 275 275 274
278 278 278 278 278 277 275 274 274 274 274 272 270 268 265 264 263 262 261 260 257 254 252 251 251 251 251 251 250 250 250 250 250 249 249 249 249 249 249 248 247 245 243 241 239 240 242 245 248 249 249 249 250 251 253 255 256 257 258 259 260 261 262 262 263 264 265 265 265 265 264 264 265 265 266 267 268 270 271 272 272 272 272 271 269
277 277 277 277 277 276 275 273 273 273 273 272 271 269 266 264 263 261 259 258 256 253 251 250 249 250 250 250 250 250 249 249 248 248 248 248 247 246 244 242 241 239 238 237 238 240 244 246 248 247 247 247 248 249 251 253 254 255 256 257 258 258 259 260 261 262 263 263 263 263 262 263 263 264 265 266 267 268 269 270 270 269 267 266 265
276 275 275 275 275 275 274 273 272 272 272 271 271 269 267 264 262 260 258 256 254 252 251 250 248 248 248 248 247 247 246 245 245 244 244 243 242 241 240 240 240 240 240 241 242 244 245 246 246 245 246 246 247 248 250 252 253 253 254 254 255 256 258 259 260 261 261 261 261 261 261 261 262 262 263 265 266 267 268 268 267 265 263 262 260
274 274 274 274 274 274 274 273 273 273 273 271 270 268 266 264 261 258 256 255 253 252 251 249 248 247 246 245 245 244 244 243 243 242 241 241 240 240 241 242 243 244 244 244 243 243 243 243 244 245 245 246 247 248 250 251 251 251 252 252 254 255 256 257 258 259 259 259 259 259 259 260 261 261 262 264 265 265 265 265 264 262 259 258 256
273 272 272 272 272 273 274 274 274 273 273 273 270 267 264 262 261 258 255 253 251 250 249 249 248 247 246 245 243 242 241 240 239 239 239 239 240 240 241 242 242 242 242 241 240 240 240 241 243 244 245 246 247 248 249 249 249 249 250 251 252 254 255 256 257 257 257 257 257 257 258 258 259 260 262 262 263 264 263 262 260 258 256 254 253
Height
10574 10574 10574 10574 10574 10574 10575 10577 10578 10578 10579 10580 10580 10581 10581 10581 10582 10582 10583 10583 10584 10584 10584 10585 10585 10585 10585 10585 10586 10586 10587 10587 10587 10587 10587 10587 10587 10587 10586 10586 10586 10586 10586 10586 10586 10585 10585 10584 10584 10583 10583 10581 10580 10579 10578 10577 10575 10575 10574 10574 10574 10573 10573 10572 10572 10571 10571 10570 10571 10571 10571 10572 10572 10572 10572 10572 10572 10572 10573 10574 10575 10576 10576 10577 10577
10569 10569 10568 10568 10568 10568 10569 10570 10571 10572 10573 10573 10574 10574 10575 10575 10576 10576 10576 10577 10577 10577 10578 10578 10578 10578 10578 10578 10578 10578 10578 10579 10579 10580 10580 10580 10580 10580 10580 10580 10580 10579 10579 10579 10579 10579 10579 10578 10578 10577 10577 10576 10575 10573 10572 10570 10569 10569 10568 10568 10568 10567 10566 10565 10565 10564 10563 10563 10563 10563 10564 10564 10565 10565 10565 10565 10566 10566 10567 10568 10569 10570 10571 10571 10571
10564 10563 10562 10562 10562 10563 10563 10563 10564 10564 10565 10566 10567 10567 10568 10568 10569 10569 10570 10570 10570 10571 10571 10571 10571 10570 10570 10571 10571 10571 10571 10571 10571 10571 10572 10572 10573 10573 10573 10572 10572 10571 10571 10571 10570 10570 10570 10569 10569 10568 10568 10568 10568 10567 10566 10565 10563 10563 10562 10562 10562 10561 10559 10558 10558 10557 10556 10556 10556 10557 10557 10557 10557 10558 10558 10559 10559 10560 10561 10562 10563 10564 10565 10565 10566
10558 10557 10556 10556 10557 10557 10558 10557 10557 10557 10558 10559 10559 10560 10561 10561 10562 10562 10563 10563 10564 10564 10565 10565 10565 10564 10563 10562 10561 10562 10562 10562 10563 10563 10563 10563 10564 10564 10563 10563 10562 10561 10561 10561 10561 10561 10561 10561 10560 10560 10559 10559 10559 10559 10558 10557 10556 10556 10555 10555 10554 10553 10552 10551 10550 10550 10550 10549 10549 10549 10549 10549 10550 10550 10550 10551 10552 10553 10554 10555 10556 10557 10558 10559 10559
10552 10550 10549 10550 10550 10551 10552 10552 10551 10550 10550 10551 10551 10552 10552 10553 10554 10555 10556 10556 10557 10557 10557 10558 10558 10558 10558 10557 10556 10555 10554 10554 10554 10554 10554 10555 10555 10555 10555 10554 10554 10553 10553 10554 10554 10554 10554 10554 10554 10553 10553 10553 10552 10551 10550 10549 10549 10548 10547 10547 10546 10546 10545 10544 10543 10543 10543 10543 10543 10542 10542 10542 10542 10542 10543 10544 10545 10546 10547 10548 10549 10549 10550 10551 10552
10544 10543 10544 10544 10544 10545 10545 10544 10545 10545 10544 10543 10542 10543 10544 10545 10546 10547 10548 10549 10549 10549 10550 10550 10551 10551 10551 10551 10551 10550 10549 10549 10549 10548 10548 10549 10549 10550 10550 10549 10549 10548 10548 10548 10548 10548 10547 10547 10548 10548 10547 10546 10546 10545 10543 10542 10542 10541 10541 10540 10539 10538 10538 10537 10536 10536 10536 10536 10536 10536 10536 10535 10536 10536 10537 10537 10539 10539 10540 10540 10541 10542 10542 10543 10545
10537 10538 10539 10538 10538 10539 10536 10535 10538 10539 10537 10535 10534 10535 10536 10537 10538 10539 10540 10540 10541 10541 10542 10542 10543 10544 10544 10544 10544 10543 10542 10543 10543 10542 10542 10543 10544 10545 10545 10544 10544 10543 10543 10543 10542 10541 10541 10541 10541 10541 10540 10539 10538 10538 10536 10535 10536 10536 10535 10534 10532 10531 10531 10530 10530 10529 10530 10530 10530 10529 10529 10528 10529 10529 10529 10530 10532 10533 10533 10533 10534 10535 10535 10535 10537
10531 10531 10532 10532 10532 10532 10529 10529 10532 10532 10530 10529 10528 10529 10529 10530 10531 10531 10531 10532 10533 10534 10534 10534 10535 10535 10536 10537 10537 10537 10536 10536 10536 10535 10534 10535 10536 10537 10537 10537 10536 10536 10536 10536 10534 10533 10533 10533 10534 10534 10533 10531 10531 10530 10530 10529 10529 10530 10529 10528 10526 10525 10524 10524 10523 10523 10523 10524 10524 10524 10523 10522 10523 10523 10522 10523 10525 10526 10527 10527 10527 10528 10529 10528 10529
10524 10524 10525 10524 10524 10524 10523 10524 10525 10525 10524 10523 10522 10522 10522 10523 10524 10524 10524 10525 10526 10526 10526 10526 10527 10528 10528 10529 10530 10530 10530 10529 10529 10527 10526 10526 10527 10528 10528 10528 10528 10527 10528 10528 10526 10525 10525 10525 10525 10525 10525 10524 10523 10523 10523 10522 10522 10523 10523 10521 10520 10519 10519 10518 10517 10517 10517 10517 10517 10518 10517 10516 10516 10516 10516 10516 10517 10518 10519 10520 10520 10521 10521 10521 10521
10517 10517 10517 10516 10516 10516 10516 10517 10517 10518 10517 10517 10516 10516 10516 10516 10517 10518 10518 10518 10519 10519 10519 10519 10520 10520 10521 10521 10522 10523 10523 10522 10521 10520 10519 10518 10517 10518 10519 10520 10519 10519 10520 10519 10518 10517 10517 10518 10517 10515 10516 10516 10515 10515 10516 10515 10516 10517 10517 10516 10514 10513 10512 10511 10511 10510 10510 10510 10511 10511 10511 10510 10509 10509 10509 10508 10509 10509 10511 10512 10512 10513 10513 10513 10512
10508 10508 10508 10508 10508 10508 10509 10509 10510 10510 10510 10510 10510 10510 10509 10508 10509 10511 10511 10511 10512 10512 10512 10512 10513 10513 10513 10514 10514 10515 10515 10514 10512 10512 10511 10510 10508 10508 10509 10511 10510 10510 10510 10509 10508 10509 10509 10509 10508 10507 10508 10508 10507 10508 10509 10509 10509 10510 10510 10510 10509 10508 10507 10506 10505 10504 10503 10503 10504 10504 10505 10504 10502 10503 10503 10501 10501 10502 10502 10502 10503 10504 10504 10504 10503
10498 10499 10499 10500 10500 10501 10501 10501 10502 10502 10502 10503 10504 10503 10501 10501 10502 10502 10503 10503 10504 10505 10505 10505 10506 10506 10505 10505 10506 10506 10506 10506 10504 10503 10503 10502 10499 10497 10498 10500 10500 10500 10500 10499 10499 10500 10499 10499 10499 10498 10499 10500 10500 10501 10502 10502 10503 10503 10503 10504 10503 10502 10502 10500 10499 10499 10497 10496 10496 10497 10497 10496 10495 10497 10496 10494 10494 10495 10494 10494 10495 10496 10496 10496 10496
10488 10490 10491 10492 10492 10493 10493 10492 10492 10493 10493 10495 10495 10495 10493 10493 10494 10495 10495 10496 10497 10497 10496 10497 10498 10499 10498 10498 10497 10497 10497 10497 10496 10495 10495 10494 10492 10489 10488 10489 10489 10489 10489 10489 10489 10490 10490 10489 10490 10490 10490 10491 10491 10492 10493 10494 10495 10495 10495 10496 10495 10494 10494 10493 10493 10492 10491 10490 10490 10489 10489 10488 10487 10489 10489 10486 10487 10488 10486 10486 10486 10486 10487 10487 10487
10480 10481 10482 10483 10484 10484 10484 10483 10482 10482 10483 10484 10486 10486 10486 10486 10486 10487 10488 10489 10489 10489 10488 10489 10491 10491 10491 10490 10490 10490 10490 10490 10489 10488 10488 10487 10485 10483 10481 10481 10480 10478 10480 10480 10480 10481 10481 10481 10481 10481 10481 10482 10482 10483 10484 10485 10485 10486 10486 10486 10485 10485 10484 10484 10483 10483 10482 10482 10483 10482 10482 10480 10480 10481 10481 10479 10479 10479 10478 10478 10477 10477 10478 10478 10478
10471 10472 10472 10473 10474 10474 10474 10473 10472 10472 10473 10474 10475 10476 10477 10477 10478 10479 10480 10481 10482 10481 10482 10482 10482 10482 10482 10481 10481 10482 10483 10483 10481 10480 10480 10479 10477 10475 10475 10475 10473 10472 10473 10473 10473 10474 10475 10474 10474 10474 10473 10473 10473 10474 10476 10477 10476 10477 10477 10476 10475 10475 10474 10473 10473 10473 10473 10473 10473 10473 10473 10472 10471 10472 10472 10471 10470 10470 10469 10469 10468 10467 10469 10469 10468
10461 10462 10462 10463 10463 10463 10463 10463 10462 10461 10462 10462 10463 10465 10465 10466 10467 10469 10471 10472 10473 10474 10476 10478 10477 10475 10474 10472 10473 10475 10478 10477 10473 10470 10470 10470 10469 10468 10466 10465 10465 10466 10466 10465 10466 10467 10467 10467 10468 10467 10466 10465 10465 10466 10467 10469 10469 10469 10469 10469 10468 10467 10466 10466 10465 10465 10465 10464 10464 10464 10463 10462 10462 10462 10462 10461 10461 10460 10460 10459 10458 10458 10459 10460 10459
10451 10452 10452 10452 10452 10452 10453 10453 10452 10451 10451 10451 10452 10453 10454 10455 10456 10457 10459 10461 10462 10464 10468 10473 10474 10471 10467 10465 10467 10472 10473 10470 10464 10461 10460 10459 10459 10459 10458 10456 10458 10459 10458 10457 10458 10459 10459 10459 10460 10460 10459 10459 10459 10459 10459 10460 10461 10461 10461 10461 10461 10460 10459 10458 10458 10458 10457 10456 10456 10455 10454 10454 10453 10452 10452 10451 10451 10451 10451 10450 10449 10448 10450 10451 10450
10440 10441 10441 10441 10441 10442 10442 10442 10442 10441 10440 10441 10442 10442 10443 10444 10445 10446 10448 10449 10450 10452 10456 10461 10464 10461 10458 10459 10463 10466 10465 10459 10453 10451 10451 10449 10449 10449 10448 10448 10450 10451 10449 10448 10449 10449 10450 10451 10451 10451 10451 10452 10453 10453 10454 10454 10454 10453 10453 10453 10453 10453 10451 10450 10450 10450 10449 10448 10448 10447 10446 10445 10445 10444 10443 10442 10441 10441 10441 10441 10440 10440 10441 10442 10442
10428 10429 10430 10430 10430 10431 10431 10432 10432 10432 10431 10431 10431 10432 10432 10433 10435 10436 10437 10438 10439 10440 10442 10447 10450 10447 10447 10452 10455 10455 10453 10447 10442 10441 10440 10440 10441 10440 10438 10439 10442 10441 10439 10439 10440 10440 10441 10441 10442 10442 10443 10444 10446 10447 10448 10448 10447 10446 10445 10445 10445 10445 10443 10441 10442 10442 10441 10440 10439 10438 10437 10437 10436 10435 10435 10434 10432 10432 10432 10431 10431 10431 10432 10432 10431
10416 10417 10419 10420 10420 10421 10422 10422 10422 10422 10422 10421 10422 10423 10423 10423 10425 10426 10428 10429 10429 10429 10430 10433 10435 10435 10437 10441 10443 10443 10441 10437 10434 10433 10432 10431 10431 10429 10428 10430 10432 10429 10428 10430 10431 10432 10432 10431 10431 10433 10435 10437 10439 10440 10440 10440 10439 10438 10438 10436 10436 10437 10436 10434 10432 10431 10431 10431 10429 10429 10428 10428 10427 10427 10426 10426 10424 10423 10423 10422 10421 10421 10422 10422 10420
10407 10407 10409 10409 10410 10411 10411 10412 10413 10413 10412 10412 10413 10413 10413 10414 10415 10416 10417 10419 10420 10420 10420 10421 10423 10424 10426 10428 10430 10432 10432 10430 10428 10427 10423 10421 10421 10419 10417 10419 10420 10418 10417 10420 10422 10423 10423 10422 10421 10422 10425 10428 10431 10432 10432 10432 10431 10430 10429 10428 10428 10427 10427 10426 10424 10422 10421 10421 10420 10420 10419 10419 10419 10418 10417 10417 10416 10415 10414 10413 10411 10411 10411 10410 10409
10398 10398 10399 10399 10399 10399 10400 10401 10402 10403 10403 10402 10403 10404 10403 10404 10405 10406 10406 10408 10410 10410 10410 10411 10413 10414 10415 10416 10419 10421 10422 10422 10421 10420 10415 10410 10410 10409 10407 10407 10408 10407 10407 10410 10414 10415 10414 10413 10413 10413 10415 10419 10423 10425 10424 10423 10422 10421 10420 10420 10419 10418 10417 10417 10416 10414 10412 10412 10411 10411 10410 10409 10409 10408 10408 10407 10407 10406 10405 10404 10403 10401 10400 10398 10397
10389 10389 10389 10388 10387 10387 10387 10389 10390 10392 10392 10392 10393 10394 10394 10394 10395 10395 10395 10396 10398 10400 10401 10401 10402 10403 10404 10405 10407 10410 10412 10411 10410 10411 10409 10403 10400 10399 10397 10396 10397 10396 10396 10401 10406 10407 10405 10404 10405 10406 10406 10409 10412 10415 10415 10413 10412 10412 10411 10411 10410 10409 10408 10407 10407 10405 10404 10403 10403 10401 10400 10399 10398 10398 10397 10397 10396 10396 10395 10394 10393 10392 10390 10388 10386
10380 10380 10379 10377 10377 10376 10377 10378 10379 10381 10382 10382 10383 10384 10384 10384 10384 10385 10384 10384 10385 10389 10390 10390 10390 10391 10393 10394 10395 10399 10401 10400 10397 10400 10401 10397 10393 10392 10389 10387 10385 10383 10385 10391 10395 10396 10396 10396 10397 10398 10399 10400 10402 10403 10404 10403 10403 10403 10402 10401 10400 10399 10398 10397 10396 10395 10395 10395 10394 10392 10390 10389 10388 10387 10387 10386 10386 10385 10385 10384 10383 10381 10379 10377 10375
10369 10369 10368 10367 10367 10367 10367 10368 10369 10370 10371 10372 10372 10373 10374 10373 10374 10374 10374 10374 10375 10377 10379 10380 10379 10379 10381 10382 10383 10385 10388 10389 10387 10389 10390 10387 10385 10385 10383 10380 10377 10374 10375 10379 10382 10384 10386 10387 10387 10389 10392 10392 10393 10393 10394 10394 10394 10393 10392 10392 10391 10390 10388 10387 10386 10386 10385 10384 10383 10382 10380 10378 10377 10377 10376 10375 10374 10374 10373 10373 10371 10369 10367 10365 10363
10356 10356 10356 10356 10356 10356 10357 10357 10357 10358 10359 10360 10361 10362 10362 10362 10363 10364 10364 10364 10365 10366 10367 10369 10369 10367 10368 10370 10371 10371 10375 10377 10377 10378 10378 10377 10376 10376 10375 10372 10369 10368 10368 10369 10371 10373 10375 10376 10376 10378 10381 10383 10383 10384 10384 10384 10384 10384 10383 10383 10382 10381 10379 10377 10376 10376 10374 10373 10372 10370 10369 10368 10367 10366 10365 10365 10363 10362 10362 10361 10359 10356 10354 10352 10350
10344 10344 10344 10344 10344 10344 10344 10345 10345 10345 10346 10346 10347 10349 10350 10351 10352 10353 10353 10353 10354 10354 10356 10358 10358 10356 10357 10358 10358 10358 10361 10364 10366 10366 10367 10366 10364 10364 10365 10363 10361 10361 10361 10361 10363 10364 10365 10365 10367 10369 10372 10373 10373 10374 10374 10375 10375 10375 10374 10374 10373 10372 10371 10369 10367 10366 10364 10362 10360 10359 10358 10357 10356 10355 10354 10353 10352 10351 10350 10349 10347 10344 10342 10339 10337
10331 10331 10330 10330 10330 10331 10331 10331 10332 10332 10333 10333 10334 10335 10337 10338 10340 10341 10341 10340 10340 10341 10344 10347 10345 10344 10346 10347 10346 10346 10347 10350 10353 10355 10355 10355 10353 10352 10353 10354 10354 10354 10354 10354 10355 10355 10355 10356 10357 10360 10362 10363 10364 10364 10365 10366 10366 10366 10366 10365 10365 10364 10362 10360 10359 10357 10355 10353 10351 10349 10348 10347 10346 10345 10344 10343 10341 10340 10339 10338 10336 10333 10330 10327 10326
10319 10318 10316 10316 10316 10316 10317 10318 10318 10319 10319 10320 10320 10321 10323 10324 10325 10327 10327 10328 10329 10329 10331 10333 10332 10331 10335 10337 10336 10334 10334 10336 10340 10342 10341 10341 10342 10342 10342 10343 10345 10347 10347 10346 10345 10345 10345 10345 10347 10350 10352 10353 10353 10355 10356 10356 10357 10357 10357 10357 10356 10356 10353 10351 10349 10348 10346 10343 10341 10340 10338 10337 10336 10335 10334 10333 10331 10330 10329 10327 10325 10322 10319 10317 10316
10306 10304 10303 10302 10302 10302 10303 10304 10304 10305 10305 10305 10306 10307 10308 10308 10310 10311 10312 10316 10318 10317 10316 10317 10319 10320 10323 10326 10325 10324 10321 10321 10325 10327 10326 10326 10330 10332 10333 10335 10336 10336 10336 10336 10335 10335 10334 10334 10335 10337 10339 10340 10341 10344 10345 10347 10348 10349 10347 10346 10346 10346 10345 10342 10340 10339 10337 10334 10331 10330 10329 10328 10326 10325 10324 10322 10321 10320 10318 10316 10313 10310 10309 10308 10307
10292 10290 10289 10288 10288 10287 10288 10289 10290 10290 10291 10291 10292 10292 10293 10293 10295 10295 10296 10300 10304 10303 10302 10303 10305 10309 10312 10313 10313 10311 10308 10307 10309 10311 10311 10314 10319 10321 10323 10325 10325 10324 10324 10325 10326 10326 10325 10325 10326 10326 10326 10327 10329 10331 10334 10337 10339 10339 10337 10336 10335 10335 10334 10332 10331 10329 10327 10324 10322 10321 10319 10318 10317 10315 10314 10313 10311 10310 10307 10304 10302 10301 10301 10299 10298
10279 10277 10275 10274 10273 10273 10273 10274 10275 10276 10277 10277 10277 10277 10277 10278 10280 10281 10281 10283 10286 10289 10290 10289 10291 10296 10300 10300 10298 10297 10296 10295 10296 10295 10296 10302 10308 10311 10313 10314 10314 10313 10314 10315 10316 10316 10317 10317 10317 10315 10314 10316 10318 10322 10325 10328 10328 10328 10327 10327 10327 10326 10324 10321 10320 10319 10316 10314 10313 10311 10310 10309 10307 10306 10305 10304 10302 10299 10296 10294 10294 10294 10292 10290 10289
10265 10263 10261 10260 10259 10259 10259 10259 10260 10261 10262 10263 10263 10262 10263 10264 10265 10266 10268 10268 10269 10273 10276 10277 10278 10282 10285 10285 10284 10283 10282 10283 10282 10279 10282 10291 10298 10300 10301 10302 10302 10303 10304 10304 10305 10306 10307 10308 10306 10304 10303 10306 10311 10315 10318 10319 10318 10317 10317 10317 10317 10317 10314 10312 10310 10308 10306 10304 10303 10302 10301 10300 10298 10297 10296 10295 10292 10289 10286 10286 10286 10285 10284 10282 10282
10250 10249 10247 10247 10246 10246 10245 10245 10246 10247 10249 10250 10251 10250 10249 10250 10251 10253 10255 10255 10255 10257 10261 10262 10263 10266 10269 10270 10270 10268 10268 10269 10269 10267 10270 10279 10286 10287 10288 10289 10290 10291 10292 10293 10294 10296 10297 10296 10295 10294 10295 10299 10303 10307 10308 10309 10309 10308 10307 10307 10307 10307 10305 10303 10301 10299 10296 10295 10294 10293 10292 10291 10290 10289 10288 10286 10283 10280 10279 10280 10279 10277 10276 10276 10275
10237 10236 10235 10235 10234 10234 10233 10232 10233 10234 10236 10237 10238 10238 10237 10238 10239 10240 10241 10242 10243 10243 10245 10247 10249 10251 10252 10254 10255 10255 10255 10257 10258 10258 10260 10266 10270 10272 10275 10278 10279 10279 10280 10282 10284 10286 10286 10286 10285 10287 10289 10292 10295 10298 10299 10300 10301 10300 10299 10298 10298 10296 10295 10294 10292 10290 10288 10287 10286 10285 10284 10283 10282 10281 10280 10278 10275 10273 10273 10273 10272 10270 10269 10269 10268
10225 10224 10223 10223 10222 10222 10222 10221 10222 10223 10223 10224 10225 10226 10225 10225 10227 10228 10228 10230 10231 10230 10231 10234 10236 10237 10237 10239 10241 10243 10244 10246 10248 10249 10250 10253 10255 10258 10262 10267 10269 10268 10268 10271 10274 10276 10276 10276 10277 10280 10282 10284 10287 10289 10290 10292 10293 10292 10290 10289 10288 10287 10286 10285 10283 10281 10281 10280 10279 10278 10277 10276 10275 10274 10272 10270 10268 10267 10267 10267 10265 10264 10264 10263 10263
10214 10213 10212 10212 10212 10211 10211 10211 10211 10212 10212 10212 10213 10213 10213 10213 10214 10216 10217 10218 10218 10218 10219 10222 10224 10224 10225 10228 10229 10231 10234 10237 10238 10238 10240 10242 10245 10248 10252 10256 10257 10256 10258 10261 10263 10264 10265 10267 10270 10274 10276 10276 10278 10280 10281 10283 10283 10282 10281 10280 10279 10278 10277 10276 10275 10274 10274 10273 10272 10271 10271 10270 10268 10267 10265 10263 10262 10261 10261 10260 10259 10259 10258 10258 10257
10205 10204 10203 10202 10202 10202 10202 10201 10201 10201 10202 10202 10202 10202 10202 10202 10203 10205 10207 10207 10207 10208 10209 10209 10211 10214 10216 10217 10217 10220 10224 10227 10230 10231 10231 10233 10235 10238 10240 10242 10242 10243 10246 10249 10251 10253 10257 10261 10264 10266 10267 10268 10270 10272 10272 10272 10272 10272 10271 10271 10271 10270 10269 10268 10268 10267 10267 10266 10266 10265 10264 10263 10261 10260 10258 10257 10256 10256 10255 10254 10254 10254 10253 10252 10252
10196 10195 10194 10193 10193 10193 10192 10192 10192 10192 10192 10192 10191 10191 10191 10191 10193 10195 10197 10197 10198 10198 10197 10197 10200 10204 10206 10205 10207 10210 10213 10217 10220 10222 10222 10222 10225 10226 10226 10227 10229 10232 10235 10240 10243 10247 10252 10255 10256 10257 10259 10261 10262 10263 10262 10262 10262 10263 10263 10262 10262 10262 10262 10261 10261 10260 10260 10259 10259 10258 10257 10256 10255 10254 10253 10251 10251 10250 10250 10249 10249 10249 10248 10248 10247
10188 10187 10186 10185 10184 10184 10184 10184 10184 10183 10183 10182 10182 10181 10181 10181 10184 10186 10187 10188 10188 10187 10187 10187 10190 10193 10194 10195 10197 10200 10203 10206 10210 10212 10212 10213 10214 10214 10214 10216 10219 10223 10226 10231 10236 10241 10244 10246 10246 10248 10251 10252 10252 10251 10252 10253 10254 10254 10254 10254 10255 10255 10254 10254 10254 10253 10253 10253 10252 10251 10251 10250 10249 10248 10247 10246 10246 10245 10245 10244 10244 10244 10243 10243 10243
10180 10179 10178 10177 10177 10176 10176 10176 10175 10175 10174 10174 10173 10173 10172 10173 10176 10176 10176 10177 10178 10177 10178 10179 10179 10181 10184 10187 10188 10190 10192 10194 10197 10200 10201 10202 10204 10205 10206 10209 10212 10214 10217 10223 10229 10233 10236 10237 10237 10239 10241 10241 10241 10242 10244 10245 10245 10245 10246 10247 10247 10247 10247 10247 10247 10246 10246 10246 10246 10245 10245 10244 10243 10242 10242 10241 10241 10240 10240 10240 10239 10239 10239 10239 10238
10172 10171 10171 10170 10170 10169 10169 10168 10167 10167 10166 10166 10165 10165 10164 10166 10167 10167 10167 10168 10169 10169 10170 10170 10171 10172 10174 10176 10178 10180 10181 10183 10186 10189 10191 10193 10195 10198 10201 10203 10204 10205 10210 10216 10223 10226 10227 10227 10227 10229 10229 10230 10232 10234 10236 10237 10237 10238 10239 10240 10240 10240 10240 10240 10240 10240 10240 10240 10240 10240 10239 10238 10237 10237 10237 10236 10236 10236 10235 10235 10235 10235 10234 10234 10234
10165 10164 10164 10164 10163 10163 10162 10161 10159 10159 10159 10158 10158 10158 10157 10158 10158 10159 10159 10160 10161 10162 10163 10163 10164 10165 10165 10166 10168 10171 10173 10175 10178 10181 10184 10185 10187 10190 10194 10195 10197 10200 10205 10211 10216 10218 10218 10217 10218 10219 10219 10221 10225 10227 10228 10229 10229 10230 10231 10232 10233 10233 10233 10234 10234 10234 10234 10234 10234 10234 10233 10233 10232 10232 10232 10232 10231 10231 10231 10231 10231 10231 10231 10230 10230
10158 10158 10157 10157 10157 10156 10155 10154 10152 10152 10152 10152 10151 10151 10150 10150 10150 10151 10152 10153 10154 10155 10156 10157 10157 10157 10156 10157 10160 10163 10165 10167 10170 10174 10176 10178 10180 10183 10187 10189 10192 10196 10200 10205 10208 10209 10208 10209 10209 10210 10211 10214 10217 10219 10220 10221 10222 10223 10224 10225 10226 10226 10227 10227 10228 10228 10228 10228 10228 10228 10228 10228 10227 10227 10227 10227 10227 10227 10227 10227 10227 10227 10227 10226 10226
10152 10151 10151 10150 10150 10150 10149 10147 10146 10145 10145 10145 10145 10144 10144 10143 10143 10144 10145 10146 10147 10148 10149 10150 10150 10149 10149 10152 10154 10156 10159 10161 10164 10166 10169 10171 10173 10176 10180 10184 10187 10191 10194 10198 10200 10200 10200 10200 10201 10202 10205 10208 10210 10211 10212 10214 10215 10216 10218 10219 10219 10220 10220 10221 10221 10222 10222 10222 10222 10223 10223 10223 10222 10222 10223 10223 10223 10223 10223 10223 10223 10223 10223 10223 10223
10146 10146 10145 10144 10144 10144 10143 10142 10140 10139 10139 10139 10139 10138 10138 10137 10138 10138 10138 10139 10140 10142 10142 10143 10143 10143 10144 10147 10149 10150 10152 10154 10157 10159 10161 10164 10167 10170 10174 10178 10181 10184 10186 10189 10191 10191 10190 10191 10193 10196 10199 10201 10203 10204 10205 10206 10207 10209 10211 10212 10213 10213 10214 10215 10215 10216 10216 10216 10217 10218 10218 10218 10218 10218 10218 10218 10219 10219 10219 10219 10219 10219 10219 10219 10219
10141 10140 10140 10139 10138 10138 10138 10137 10135 10134 10134 10133 10133 10133 10132 10132 10132 10132 10133 10134 10135 10135 10136 10137 10137 10138 10139 10141 10142 10144 10146 10148 10150 10153 10155 10158 10161 10164 10168 10171 10173 10175 10177 10180 10181 10181 10182 10184 10187 10190 10192 10194 10195 10197 10198 10199 10201 10203 10205 10206 10207 10207 10208 10209 10210 10210 10210 10211 10212 10212 10213 10213 10213 10213 10214 10214 10214 10214 10215 10215 10215 10215 10215 10215 10216
10137 10136 10135 10134 10133 10133 10133 10132 10131 10130 10129 10128 10128 10127 10127 10127 10127 10127 10128 10128 10129 10129 10130 10131 10132 10133 10134 10136 10137 10139 10141 10143 10145 10147 10150 10153 10155 10158 10160 10162 10164 10166 10168 10170 10172 10174 10176 10179 10181 10183 10185 10187 10188 10190 10191 10193 10195 10197 10199 10200 10200 10201 10202 10203 10204 10205 10205 10206 10207 10207 10208 10208 10209 10209 10209 10210 10210 10210 10210 10211 10211 10211 10211 10212 10212
10132 10131 10131 10130 10129 10128 10128 10127 10126 10125 10125 10124 10123 10123 10123 10123 10123 10123 10123 10124 10124 10125 10125 10126 10127 10128 10129 10131 10133 10134 10136 10138 10140 10142 10144 10147 10149 10151 10153 10154 10156 10159 10161 10164 10167 10169 10171 10172 10174 10176 10178 10180 10182 10183 10185 10187 10189 10191 10193 10194 10195 10195 10197 10198 10198 10199 10200 10201 10202 10202 10203 10204 10204 10205 10205 10206 10206 10206 10206 10207 10207 10207 10208 10208 10208
10128 10127 10127 10126 10125 10124 10123 10123 10122 10121 10120 10120 10120 10119 10119 10118 10118 10119 10119 10119 10120 10121 10121 10122 10123 10124 10125 10126 10128 10129 10131 10133 10135 10137 10139 10141 10143 10145 10147 10149 10151 10154 10156 10159 10161 10163 10164 10166 10168 10170 10172 10173 10176 10178 10180 10182 10184 10185 10187 10188 10189 10190 10191 10192 10193 10194 10195 10196 10197 10198 10198 10199 10200 10200 10201 10201 10202 10202 10202 10203 10203 10203 10204 10204 10205
10123 10123 10122 10122 10122 10121 10119 10119 10118 10118 10117 10116 10116 10116 10115 10115 10115 10115 10115 10116 10116 10117 10117 10118 10119 10120 10121 10122 10124 10125 10127 10128 10130 10132 10134 10136 10138 10140 10142 10144 10146 10149 10151 10153 10155 10157 10158 10160 10162 10164 10166 10168 10171 10173 10174 10176 10178 10180 10181 10182 10183 10184 10185 10187 10187 10188 10189 10190 10192 10193 10194 10194 10195 10196 10196 10197 10198 10198 10198 10199 10199 10200 10200 10201 10201